Location: Eisingen in Unterfranken
(49.7591°N, 9.8347°E)
Time: 02:50:03
(UTC+01:00)

N. Korean satellite - Pass Details

Date: 09 December 2022
Orbit: 408 x 444 km, 97.3° (Epoch: 28 January)

Event Time Altitude Azimuth Distance (km) Brightness Sun altitude
Rises 17:55:46 0° 213° (SSW) 2,478 11.0 -14.6°
Reaches altitude 10° 17:58:47 10° 244° (WSW) 1,619 10.6 -15.0°
Maximum altitude 18:00:23 13° 271° (W) 1,469 10.1 -15.3°
Drops below altitude 10° 18:01:59 10° 298° (WNW) 1,632 9.9 -15.5°
Sets 18:05:05 0° 329° (NNW) 2,519 10.4 -16.0°
